Regional Weather Roundup
Issued by NWS

Home | Current Version | Previous Version | Graphics & Text | Print | Product List | Glossary On
Versions: 1 2 3 4 5 6 7 8 9 10 11 12 13 14 15 16 17 18 19 20 21 22 23 24 25 26 27 28 29 30 31 32 33 34 35 36 37 38 39 40 41 42 43 44 45 46 47 48 49 50
000
ASUS43 KMKX 310321
RWRWI

WISCONSIN REGIONAL WEATHER ROUNDUP
NATIONAL WEATHER SERVICE MILWAUKEE/SULLIVAN WI
1000 PM CDT SAT JUL 30 2016

NOTE: "FAIR" INDICATES FEW OR NO CLOUDS BELOW 12,000 FEET WITH NO
SIGNIFICANT WEATHER AND/OR OBSTRUCTIONS TO VISIBILITY.

WIZ001-002-006>008-014>016-023>028-310400-
NORTHWEST WISCONSIN

CITY           SKY/WX    TMP DP  RH WIND       PRES   REMARKS
SUPERIOR ARPT  CLOUDY    63  62  95 NE7       30.02S
ASHLAND        CLEAR     62  60  93 N3        30.04R
HAYWARD        CLEAR     63  60  90 NE3       30.03R
SIREN          NOT AVBL
CUMBERLAND     CLEAR     64  59  82 CALM      30.03R
RICE LAKE      CLEAR     66  61  85 CALM      30.04R
CHETEK         CLEAR     68  64  87 CALM      30.03R
LADYSMITH      PTCLDY    69  61  75 SE5       30.06R
EAU CLAIRE     CLEAR     71  63  75 SE7       30.01R
MENOMONIE      CLEAR     69  63  80 E5        30.02R
NEW RICHMOND   CLEAR     68  62  81 SE3       30.01S
OSCEOLA        PTCLDY    68  66  94 S3        30.03R
$$

WIZ003>005-009-010-017-018-310400-
NORTH CENTRAL WISCONSIN

CITY           SKY/WX    TMP DP  RH WIND       PRES   REMARKS
MANITOWISH WTR CLEAR     64  58  81 SE6       30.07R
ARBOR VITAE    CLEAR     65  57  75 SE5       30.08S
WOODRUFF       CLEAR     65  57  75 SE5       30.08S
RHINELANDER    CLEAR     64  54  69 SE5       30.10R
EAGLE RIVER    CLEAR     63  52  68 SE3       30.09R
LAND O LAKES   CLEAR     58  55  91 SE3       30.10R
PHILLIPS       PTCLDY    65  59  81 E3        30.06R
TOMAHAWK       CLEAR     61  56  83 CALM      30.09R
MEDFORD        CLEAR     64  58  81 SE6       30.06R
MERRILL        CLEAR     60  57  91 CALM      30.09R
$$

WIZ029-030-035-036-043>047-310400-
CENTRAL WISCONSIN

CITY           SKY/WX    TMP DP  RH WIND       PRES   REMARKS
WAUSAU         CLEAR     64  55  72 E5        30.06R
MOSINEE        CLEAR     63  55  77 E5        30.08R
MARSHFIELD     CLOUDY    68  57  68 E6        30.06R
STEVENS POINT  CLEAR     60  56  85 CALM      30.07R
WAUPACA        CLEAR     63  61  93 CALM      30.06R
WAUTOMA        CLEAR     64  59  83 CALM      30.06R
WISC RAPIDS    PTCLDY    66  54  65 E6        30.07R
CAMP DOUGLAS   MOCLDY    64  61  93 SE1       30.04R
$$

WIZ011>013-019>022-031-037>040-048>050-310400-
NORTHEAST WISCONSIN

CITY           SKY/WX    TMP DP  RH WIND       PRES   REMARKS
ANTIGO         CLEAR     57  55  93 CALM      30.09R
SHAWANO        CLEAR     63  56  80 CALM      30.07R
OCONTO         CLEAR    N/A N/A N/A CALM      30.05R
STURGEON BAY   CLEAR     67  57  70 NE5       30.06R
GREEN BAY      CLEAR     61  60  97 W3        30.05R
MANITOWOC      CLEAR     64  58  80 MISG      30.04S
APPLETON       PTCLDY    64  52  63 VRB3      30.05R
CLINTONVILLE   CLEAR     61  54  77 CALM      30.06S
OSHKOSH        CLEAR     69  55  60 E6        30.05R
$$

WIZ032>034-041-042-053>061-310400-
SOUTHWEST WISCONSIN

CITY           SKY/WX    TMP DP  RH WIND       PRES   REMARKS
LA CROSSE      CLEAR     72  66  81 E6        30.00R
SPARTA         PTCLDY    67  65  90 E3        30.04R
VIROQUA        PTCLDY    65  63  91 E5        30.05R
BOSCOBEL       CLEAR     67  64  90 CALM      30.02R
PRAIRIE DU CHI CLEAR     68  64  87 CALM      30.01R
PLATTEVILLE    CLEAR     68  65  89 NE5       30.03R
$$

WIZ056-057-062-063-064-067-068-310400-
SOUTH CENTRAL WISCONSIN

CITY           SKY/WX    TMP DP  RH WIND       PRES   REMARKS
REEDSBURG      CLEAR     65  61  87 CALM      30.04S
BARABOO/DELLS  CLEAR     63  58  84 E3        30.05R
LONE ROCK      CLEAR     67  60  78 E3        30.03R
MINERAL POINT  CLEAR     68  63  83 NE5       30.04R
MADISON        PTCLDY    66  57  72 CALM      30.03R
MIDDLETON      PTCLDY    65  61  85 NE3       30.05R
WATERTOWN      CLEAR     63  58  83 CALM      30.04R
MONROE         CLEAR     66  59  77 E5        30.03R
JANESVILLE     NOT AVBL
$$

WIZ051-052-058>065-066-070>072-310400-
SOUTHEAST WISCONSIN

CITY           SKY/WX    TMP DP  RH WIND       PRES   REMARKS
MILWAUKEE      CLEAR     68  63  84 N8        30.02R
WAUKESHA       CLEAR     64  55  72 NE3       30.05R
MILWAUKEE/TIMM CLEAR     66  59  77 NE3       30.04R
RACINE         CLEAR     67  63  87 N6        30.04R
BURLINGTON     CLEAR     64  58  81 CALM      30.03R
KENOSHA        CLEAR     66  62  87 N3        30.02S
FOND DU LAC    CLEAR     64  57  78 CALM      30.05R
SHEBOYGAN      CLEAR     62  58  86 N5        30.04R
WEST BEND      CLEAR     63  55  77 CALM      30.05R
JUNEAU         CLEAR     64  56  74 NE3       30.06R
$$

LSZ147-162-310400-
LAKE SUPERIOR

STATION/POSITION TIME  TEMP    WIND        PRES    WAVE
                       AIR SEA DIR/SP/G            HT/PER
                 (UTC) (F)     (DEG/KT/KT) (MB)    (FT/S)
W MID LAKE BUOY  0250   66 62  100/ 10/ 10 1016.5S   0
DEVILS ISLAND    0300   67     100/  6/  7 1016.7R
PORT WING        0240   62     190/  1/  2 1016.6R
SAXON HARBOR     0200   65     190/  2/  4 1015.9
$$

LMZ867-665-643>646-310400-
LAKE MICHIGAN

STATION/POSITION TIME  TEMP    WIND        PRES    WAVE
                       AIR SEA DIR/SP/G            HT/PER
                 (UTC) (F)     (DEG/KT/KT) (MB)    (FT/S)
CHAMBERS ISLAND  0200   72      40/  6/  8 1017.3R
S GREEN BAY BUOY 0300   71 71   50/  6/  8 1017.0R
N MID LAKE BUOY  0250   71 70   80/ 10/ 12 1016.8R   1/ 3
NORTHPORT PIER   0200   71      30/  3/  5 1016.9S
SISTER BAY       0221   66        CALM       N/A
ALGOMA LAKESHORE 0243           30/  4/  5   N/A
KEWAUNEE LAKESHO 0200           20/  2/  4 1016.6S
SHEBOYGAN LAKESH 0300   67     360/  8/  9 1017.2R
PORT WASHINGTON  0200   69     350/  4/  9 1017.3
ATWATER BUOY     0300   67 65  350/  6/  8 1018.3R
MILWAUKEE LAKESH 0210   69      10/  9/ 10   N/A
S MID LAKE BUOY  0250   72 73   80/ 12/ 12 1015.4R   1/ 4
KENOSHA   LAKESH 0300   71      10/ 10/ 12 1015.9S
$$

TC  - TEMPERATURE IN CELSIUS
VSB - VISIBILITY IN STATUTE MILES
WCI - WIND CHILL INDEX
HX  - HEAT INDEX





USA.gov is the U.S. government's official web portal to all federal, state and local government web resources and services.